Location: Newark
(34.6283°N, 36.0776°E)
Time: 12:34:32
(UTC+00:00)

A-11 Canister half - Pass Details

Date: 22 September 2019
Orbit: 1527 x 1682 km, 47.3° (Epoch: 17 October)

Event Time Altitude Azimuth Distance (km) Brightness Sun altitude
Rises 23:09:34 0° 209° (SSW) 4,663 - -48.0°
Reaches altitude 10° 23:12:44 10° 203° (SSW) 3,683 - -47.5°
Maximum altitude 23:21:27 47° 133° (SE) 1,947 - -46.3°
Exits shadow 23:24:26 37° 91° (E) 2,235 9.9 -45.9°
Drops below altitude 10° 23:30:20 10° 63° (ENE) 3,756 11.6 -45.1°
Sets 23:33:34 0° 58° (ENE) 4,762 12.3 -44.6°
